This demonstration page uses our WeatherBlox Daily Observations layout. Learn more.

38.89511, -77.03637

Hourly Observations for January 20, 2015

Temp ( °F °C ) Dew Point ( °F °C ) Humidity (%) Winds ( mph kmh ) Pressure ( in mb ) Visibility ( mi km ) Precip ( " mm )
12:52 am 00:52 Mostly Cloudy 34 1 27 -3 75 75 Calm 29.97 1015 10 16.09344 0 0
1:52 am 01:52 Mostly Cloudy 34 1 28 -2 81 81 Calm 29.97 1015 10 16.09344 0 0
2:52 am 02:52 Mostly Cloudy 32 0 27 -3 80 80 Calm 29.97 1015 10 16.09344 0 0
3:52 am 03:52 Mostly Cloudy 32 0 27 -3 80 80 Calm 29.94 1014 10 16.09344 0 0
4:52 am 04:52 Partly Cloudy 32 0 27 -3 80 80 Calm 29.94 1014 10 16.09344 0 0
5:52 am 05:52 Mostly Cloudy 30 -1 25 -4 80 80 N 3 6 29.94 1014 10 16.09344 0 0
6:52 am 06:52 Mostly Cloudy 34 1 27 -3 75 75 Calm 29.94 1014 10 16.09344 0 0
7:52 am 07:52 Mostly Cloudy 34 1 27 -3 75 75 Calm 29.94 1014 10 16.09344 0 0
8:52 am 08:52 Mostly Cloudy 36 2 27 -3 70 70 Calm 29.97 1015 10 16.09344 0 0
9:52 am 09:52 Cloudy 37 3 30 -1 75 75 Calm 29.97 1015 10 16.09344 0 0
10:52 am 10:52 Cloudy 39 4 28 -2 65 65 SSE 5 7 29.97 1015 10 16.09344 0 0
11:52 am 11:52 Mostly Cloudy 43 6 28 -2 57 57 Calm 29.97 1015 10 16.09344 0 0
12:52 pm 12:52 Mostly Cloudy 46 8 27 -3 46 46 S 3 6 29.91 1013 10 16.09344 0 0
1:52 pm 13:52 Cloudy 48 9 27 -3 43 43 Calm 29.91 1013 10 16.09344 0 0
2:52 pm 14:52 Cloudy 48 9 27 -3 43 43 Calm 29.91 1013 10 16.09344 0 0
3:52 pm 15:52 Cloudy 48 9 30 -1 50 50 N 7 11 29.94 1014 10 16.09344 0 0
4:52 pm 16:52 Mostly Cloudy 46 8 30 -1 53 53 N 5 7 29.94 1014 10 16.09344 0 0
5:52 pm 17:52 Partly Cloudy 45 7 28 -2 53 53 ENE 7 11 29.97 1015 10 16.09344 0 0
6:52 pm 18:52 Partly Cloudy 45 7 27 -3 49 49 Calm 30 1016 10 16.09344 0 0
7:52 pm 19:52 Mostly Clear 39 4 28 -2 65 65 NNE 5 7 30.03 1017 10 16.09344 0 0
8:52 pm 20:52 Mostly Clear 39 4 28 -2 65 65 NE 3 6 30.03 1017 10 16.09344 0 0
9:52 pm 21:52 Mostly Clear 37 3 28 -2 70 70 N 5 7 30.03 1017 10 16.09344 0 0
10:52 pm 22:52 Cloudy 37 3 28 -2 70 70 Calm 30.06 1018 10 16.09344 0 0
11:52 pm 23:52 Cloudy 37 3 28 -2 70 70 NNE 5 7 30.06 1018 10 16.09344 0 0

Powered by AerisWeather